NORTHEAST SUFFOLK  -  Freeze Watch Freeze Watch        NORTHWEST SUFFOLK  -  Freeze Watch Freeze Watch        SOUTHEAST SUFFOLK  -  Freeze Watch Freeze Watch        SOUTHWEST SUFFOLK  -  Freeze Watch Freeze Watch      

Active alerts

Northwest Suffolk
  Details for Northwest Suffolk Freeze Watch
Southwest Suffolk
  Details for Southwest Suffolk Freeze Watch
Northeast Suffolk
  Details for Northeast Suffolk Freeze Watch
Southeast Suffolk
  Details for Southeast Suffolk Freeze Watch


WXM80 ListenWXM80 Stop

You find our weather info also at:

UK Metoffice

WeatherCloud

Weather Underground

Northeastern Weather Network

AWEKAS

Citizen Weather Observer Program (CWOP)

HAMweather, WeatherForYou, PWS Weather


Weather Underground History page Text

Daily Summary for May 21, 2017 Units:  Both    English   Metric
« Previous Day
Next Day »
Daily Weekly Monthly Yearly Custom
  High: Low: Average:
Temperature: 70.9 °F /  21.6 °C 46.1 °F /  7.8 °C 58.3 °F /  14.6 °C
Dew Point: 57.3 °F /  14.1 °C 37.0 °F /  2.8 °C 45.6 °F /  7.6 °C
Humidity: 96 % 30 % 66 %
Wind Speed: 8.9 mph /  14.3 km/h - 1.5 mph /  2.4 km/h
Wind Gust: 13.8 mph /  22.2 km/h - -
Wind:- - ESE
Pressure: 30.36 in /  1028 hPa 30.23 in /  1023.6 hPa -
Precipitation: 0.00 in /  0 mm    
Historical Graphs
 
 
Tabular Data for May 21, 2017
Time Temperature Dew Point Pressure Wind Wind Speed Wind Gust Humidity Rainfall Rate (Hourly)
00:03 52.0 °F /  11.1 °C 46.0 °F /  7.8 °C 30.31 in /  1026.3 hPa Calm   1.2 mph /  1.9 km/h 80 % 0.00 in /  0 mm
00:08 51.9 °F /  11.1 °C 45.9 °F /  7.7 °C 30.31 in /  1026.3 hPa Calm     80 % 0.00 in /  0 mm
00:13 51.8 °F /  11 °C 46.2 °F /  7.9 °C 30.30 in /  1026 hPa Calm     81 % 0.00 in /  0 mm
00:18 51.7 °F /  10.9 °C 45.7 °F /  7.6 °C 30.31 in /  1026.3 hPa Calm     80 % 0.00 in /  0 mm
00:23 51.6 °F /  10.9 °C 45.6 °F /  7.6 °C 30.30 in /  1026 hPa Calm     80 % 0.00 in /  0 mm
00:28 51.5 °F /  10.8 °C 45.5 °F /  7.5 °C 30.30 in /  1026 hPa Calm     80 % 0.00 in /  0 mm
00:33 51.3 °F /  10.7 °C 45.7 °F /  7.6 °C 30.30 in /  1026 hPa Calm   1.2 mph /  1.9 km/h 81 % 0.00 in /  0 mm
00:38 51.2 °F /  10.7 °C 45.6 °F /  7.6 °C 30.30 in /  1026 hPa Calm     81 % 0.00 in /  0 mm
00:43 51.1 °F /  10.6 °C 45.5 °F /  7.5 °C 30.31 in /  1026.3 hPa Calm     81 % 0.00 in /  0 mm
00:48 51.0 °F /  10.6 °C 45.4 °F /  7.4 °C 30.31 in /  1026.3 hPa Calm     81 % 0.00 in /  0 mm
00:53 50.9 °F /  10.5 °C 45.6 °F /  7.6 °C 30.31 in /  1026.3 hPa Calm     82 % 0.00 in /  0 mm
00:58 50.8 °F /  10.4 °C 45.5 °F /  7.5 °C 30.31 in /  1026.3 hPa Calm     82 % 0.00 in /  0 mm
01:04 50.6 °F /  10.3 °C 45.6 °F /  7.6 °C 30.31 in /  1026.3 hPa Calm     83 % 0.00 in /  0 mm
01:09 50.5 °F /  10.3 °C 45.5 °F /  7.5 °C 30.31 in /  1026.3 hPa Calm     83 % 0.00 in /  0 mm
01:14 50.5 °F /  10.3 °C 45.5 °F /  7.5 °C 30.31 in /  1026.3 hPa Calm     83 % 0.00 in /  0 mm
01:19 50.4 °F /  10.2 °C 45.4 °F /  7.4 °C 30.30 in /  1026 hPa Calm     83 % 0.00 in /  0 mm
01:24 50.3 °F /  10.2 °C 45.6 °F /  7.6 °C 30.30 in /  1026 hPa Calm     84 % 0.00 in /  0 mm
01:29 50.2 °F /  10.1 °C 45.6 °F /  7.6 °C 30.30 in /  1026 hPa Calm     84 % 0.00 in /  0 mm
01:34 50.1 °F /  10.1 °C 45.5 °F /  7.5 °C 30.30 in /  1026 hPa Calm     84 % 0.00 in /  0 mm
01:39 50.1 °F /  10.1 °C 45.5 °F /  7.5 °C 30.29 in /  1025.6 hPa Calm     84 % 0.00 in /  0 mm
01:44 50.0 °F /  10 °C 45.7 °F /  7.6 °C 30.29 in /  1025.6 hPa Calm   1.2 mph /  1.9 km/h 85 % 0.00 in /  0 mm
01:49 49.9 °F /  9.9 °C 45.6 °F /  7.6 °C 30.29 in /  1025.6 hPa Calm     85 % 0.00 in /  0 mm
01:54 49.8 °F /  9.9 °C 45.5 °F /  7.5 °C 30.29 in /  1025.6 hPa Calm     85 % 0.00 in /  0 mm
01:59 49.7 °F /  9.8 °C 45.4 °F /  7.4 °C 30.29 in /  1025.6 hPa Calm     85 % 0.00 in /  0 mm
02:04 49.7 °F /  9.8 °C 45.4 °F /  7.4 °C 30.28 in /  1025.3 hPa Calm     85 % 0.00 in /  0 mm
02:09 49.6 °F /  9.8 °C 45.3 °F /  7.4 °C 30.29 in /  1025.6 hPa Calm     85 % 0.00 in /  0 mm
02:14 49.5 °F /  9.7 °C 45.2 °F /  7.3 °C 30.29 in /  1025.6 hPa Calm     85 % 0.00 in /  0 mm
02:19 49.4 °F /  9.7 °C 45.1 °F /  7.3 °C 30.29 in /  1025.6 hPa Calm     85 % 0.00 in /  0 mm
02:24 49.4 °F /  9.7 °C 45.1 °F /  7.3 °C 30.29 in /  1025.6 hPa Calm     85 % 0.00 in /  0 mm
02:29 49.3 °F /  9.6 °C 45.3 °F /  7.4 °C 30.28 in /  1025.3 hPa Calm     86 % 0.00 in /  0 mm
02:34 49.2 °F /  9.6 °C 45.2 °F /  7.3 °C 30.29 in /  1025.6 hPa Calm     86 % 0.00 in /  0 mm
02:40 49.1 °F /  9.5 °C 45.1 °F /  7.3 °C 30.29 in /  1025.6 hPa Calm     86 % 0.00 in /  0 mm
02:45 49.0 °F /  9.4 °C 45.0 °F /  7.2 °C 30.29 in /  1025.6 hPa Calm     86 % 0.00 in /  0 mm
02:50 48.9 °F /  9.4 °C 44.9 °F /  7.2 °C 30.29 in /  1025.6 hPa Calm     86 % 0.00 in /  0 mm
02:55 48.8 °F /  9.3 °C 44.8 °F /  7.1 °C 30.29 in /  1025.6 hPa Calm     86 % 0.00 in /  0 mm
03:00 48.8 °F /  9.3 °C 44.8 °F /  7.1 °C 30.29 in /  1025.6 hPa Calm     86 % 0.00 in /  0 mm
03:05 48.7 °F /  9.3 °C 44.7 °F /  7.1 °C 30.29 in /  1025.6 hPa Calm     86 % 0.00 in /  0 mm
03:10 48.6 °F /  9.2 °C 44.6 °F /  7 °C 30.29 in /  1025.6 hPa Calm     86 % 0.00 in /  0 mm
03:15 48.5 °F /  9.2 °C 44.8 °F /  7.1 °C 30.29 in /  1025.6 hPa Calm     87 % 0.00 in /  0 mm
03:20 48.4 °F /  9.1 °C 44.7 °F /  7.1 °C 30.30 in /  1026 hPa Calm     87 % 0.00 in /  0 mm
03:25 48.3 °F /  9.1 °C 44.6 °F /  7 °C 30.30 in /  1026 hPa Calm     87 % 0.00 in /  0 mm
03:30 48.2 °F /  9 °C 44.5 °F /  6.9 °C 30.29 in /  1025.6 hPa Calm   1.2 mph /  1.9 km/h 87 % 0.00 in /  0 mm
03:35 48.2 °F /  9 °C 44.5 °F /  6.9 °C 30.29 in /  1025.6 hPa Calm     87 % 0.00 in /  0 mm
03:40 48.1 °F /  8.9 °C 44.7 °F /  7.1 °C 30.29 in /  1025.6 hPa Calm     88 % 0.00 in /  0 mm
03:45 48.1 °F /  8.9 °C 44.7 °F /  7.1 °C 30.30 in /  1026 hPa Calm     88 % 0.00 in /  0 mm
03:50 47.9 °F /  8.8 °C 44.5 °F /  6.9 °C 30.30 in /  1026 hPa Calm     88 % 0.00 in /  0 mm
03:55 47.9 °F /  8.8 °C 44.2 °F /  6.8 °C 30.30 in /  1026 hPa Calm     87 % 0.00 in /  0 mm
04:00 47.8 °F /  8.8 °C 44.1 °F /  6.7 °C 30.30 in /  1026 hPa Calm     87 % 0.00 in /  0 mm
04:05 47.7 °F /  8.7 °C 44.3 °F /  6.8 °C 30.30 in /  1026 hPa Calm     88 % 0.00 in /  0 mm
04:10 47.6 °F /  8.7 °C 44.2 °F /  6.8 °C 30.30 in /  1026 hPa Calm     88 % 0.00 in /  0 mm
04:15 47.5 °F /  8.6 °C 44.1 °F /  6.7 °C 30.30 in /  1026 hPa Calm     88 % 0.00 in /  0 mm
04:20 47.4 °F /  8.6 °C 44.0 °F /  6.7 °C 30.30 in /  1026 hPa Calm     88 % 0.00 in /  0 mm
04:25 47.3 °F /  8.5 °C 43.9 °F /  6.6 °C 30.30 in /  1026 hPa Calm     88 % 0.00 in /  0 mm
04:30 47.2 °F /  8.4 °C 43.8 °F /  6.6 °C 30.30 in /  1026 hPa Calm     88 % 0.00 in /  0 mm
04:35 47.1 °F /  8.4 °C 43.7 °F /  6.5 °C 30.30 in /  1026 hPa Calm     88 % 0.00 in /  0 mm
04:40 47.0 °F /  8.3 °C 43.9 °F /  6.6 °C 30.30 in /  1026 hPa Calm     89 % 0.00 in /  0 mm
04:45 46.9 °F /  8.3 °C 43.8 °F /  6.6 °C 30.30 in /  1026 hPa Calm     89 % 0.00 in /  0 mm
04:50 46.9 °F /  8.3 °C 43.8 °F /  6.6 °C 30.30 in /  1026 hPa Calm     89 % 0.00 in /  0 mm
04:55 46.8 °F /  8.2 °C 43.7 °F /  6.5 °C 30.31 in /  1026.3 hPa Calm     89 % 0.00 in /  0 mm
05:00 46.7 °F /  8.2 °C 43.9 °F /  6.6 °C 30.31 in /  1026.3 hPa Calm     90 % 0.00 in /  0 mm
05:05 46.7 °F /  8.2 °C 43.9 °F /  6.6 °C 30.31 in /  1026.3 hPa Calm     90 % 0.00 in /  0 mm
05:10 46.6 °F /  8.1 °C 43.5 °F /  6.4 °C 30.32 in /  1026.6 hPa Calm     89 % 0.00 in /  0 mm
05:15 46.5 °F /  8.1 °C 43.7 °F /  6.5 °C 30.31 in /  1026.3 hPa Calm     90 % 0.00 in /  0 mm
05:20 46.4 °F /  8 °C 43.6 °F /  6.4 °C 30.32 in /  1026.6 hPa Calm     90 % 0.00 in /  0 mm
05:25 46.4 °F /  8 °C 43.6 °F /  6.4 °C 30.32 in /  1026.6 hPa Calm     90 % 0.00 in /  0 mm
05:30 46.3 °F /  7.9 °C 43.5 °F /  6.4 °C 30.33 in /  1027 hPa Calm     90 % 0.00 in /  0 mm
05:35 46.2 °F /  7.9 °C 43.4 °F /  6.3 °C 30.33 in /  1027 hPa Calm     90 % 0.00 in /  0 mm
05:41 46.2 °F /  7.9 °C 43.4 °F /  6.3 °C 30.32 in /  1026.6 hPa Calm     90 % 0.00 in /  0 mm
05:46 46.1 °F /  7.8 °C 43.3 °F /  6.3 °C 30.32 in /  1026.6 hPa Calm     90 % 0.00 in /  0 mm
05:51 46.1 °F /  7.8 °C 43.3 °F /  6.3 °C 30.32 in /  1026.6 hPa Calm     90 % 0.00 in /  0 mm
05:56 46.1 °F /  7.8 °C 43.6 °F /  6.4 °C 30.32 in /  1026.6 hPa Calm     91 % 0.00 in /  0 mm
06:01 46.2 °F /  7.9 °C 43.7 °F /  6.5 °C 30.32 in /  1026.6 hPa Calm     91 % 0.00 in /  0 mm
06:06 46.2 °F /  7.9 °C 43.7 °F /  6.5 °C 30.32 in /  1026.6 hPa Calm     91 % 0.00 in /  0 mm
06:11 46.3 °F /  7.9 °C 44.1 °F /  6.7 °C 30.32 in /  1026.6 hPa Calm     92 % 0.00 in /  0 mm
06:16 46.4 °F /  8 °C 44.2 °F /  6.8 °C 30.32 in /  1026.6 hPa Calm   1.0 mph /  1.6 km/h 92 % 0.00 in /  0 mm
06:21 46.6 °F /  8.1 °C 44.4 °F /  6.9 °C 30.33 in /  1027 hPa Calm     92 % 0.00 in /  0 mm
06:26 46.8 °F /  8.2 °C 44.9 °F /  7.2 °C 30.33 in /  1027 hPa Calm   1.0 mph /  1.6 km/h 93 % 0.00 in /  0 mm
06:31 47.0 °F /  8.3 °C 45.1 °F /  7.3 °C 30.34 in /  1027.3 hPa Calm     93 % 0.00 in /  0 mm
06:36 47.4 °F /  8.6 °C 45.8 °F /  7.7 °C 30.35 in /  1027.7 hPa Calm     94 % 0.00 in /  0 mm
06:41 47.7 °F /  8.7 °C 46.1 °F /  7.8 °C 30.35 in /  1027.7 hPa Calm     94 % 0.00 in /  0 mm
06:46 48.0 °F /  8.9 °C 46.4 °F /  8 °C 30.35 in /  1027.7 hPa Calm     94 % 0.00 in /  0 mm
06:51 48.4 °F /  9.1 °C 47.0 °F /  8.3 °C 30.35 in /  1027.7 hPa Calm     95 % 0.00 in /  0 mm
06:56 48.9 °F /  9.4 °C 47.5 °F /  8.6 °C 30.35 in /  1027.7 hPa Calm     95 % 0.00 in /  0 mm
07:01 49.6 °F /  9.8 °C 48.2 °F /  9 °C 30.34 in /  1027.3 hPa Calm     95 % 0.00 in /  0 mm
07:06 50.3 °F /  10.2 °C 49.2 °F /  9.6 °C 30.35 in /  1027.7 hPa Calm   1.0 mph /  1.6 km/h 96 % 0.00 in /  0 mm
07:11 51.1 °F /  10.6 °C 50.0 °F /  10 °C 30.35 in /  1027.7 hPa Calm     96 % 0.00 in /  0 mm
07:16 52.1 °F /  11.2 °C 51.0 °F /  10.6 °C 30.35 in /  1027.7 hPa Calm     96 % 0.00 in /  0 mm
07:21 52.7 °F /  11.5 °C 51.5 °F /  10.8 °C 30.34 in /  1027.3 hPa Calm   1.0 mph /  1.6 km/h 96 % 0.00 in /  0 mm
07:26 53.2 °F /  11.8 °C 52.1 °F /  11.2 °C 30.34 in /  1027.3 hPa Calm   2.0 mph /  3.2 km/h 96 % 0.00 in /  0 mm
07:31 54.0 °F /  12.2 °C 52.6 °F /  11.4 °C 30.33 in /  1027 hPa Calm   1.0 mph /  1.6 km/h 95 % 0.00 in /  0 mm
07:36 54.8 °F /  12.7 °C 53.1 °F /  11.7 °C 30.34 in /  1027.3 hPa NW 2.0 mph /  3.2 km/h 3.0 mph /  4.8 km/h 94 % 0.00 in /  0 mm
07:41 55.6 °F /  13.1 °C 53.3 °F /  11.8 °C 30.35 in /  1027.7 hPa Calm   2.3 mph /  3.7 km/h 92 % 0.00 in /  0 mm
07:46 56.2 °F /  13.4 °C 53.6 °F /  12 °C 30.34 in /  1027.3 hPa ENE 0.5 mph /  0.8 km/h 2.0 mph /  3.2 km/h 91 % 0.00 in /  0 mm
07:51 56.5 °F /  13.6 °C 53.0 °F /  11.7 °C 30.35 in /  1027.7 hPa NE 1.3 mph /  2.1 km/h 3.0 mph /  4.8 km/h 88 % 0.00 in /  0 mm
07:56 56.9 °F /  13.8 °C 53.1 °F /  11.7 °C 30.34 in /  1027.3 hPa NE 0.1 mph /  0.2 km/h 1.2 mph /  1.9 km/h 87 % 0.00 in /  0 mm
08:01 57.4 °F /  14.1 °C 53.6 °F /  12 °C 30.34 in /  1027.3 hPa NE 0.2 mph /  0.3 km/h 1.2 mph /  1.9 km/h 87 % 0.00 in /  0 mm
08:06 57.8 °F /  14.3 °C 53.3 °F /  11.8 °C 30.33 in /  1027 hPa Calm     85 % 0.00 in /  0 mm
08:11 58.2 °F /  14.6 °C 53.1 °F /  11.7 °C 30.34 in /  1027.3 hPa NE 0.3 mph /  0.5 km/h 1.2 mph /  1.9 km/h 83 % 0.00 in /  0 mm
08:16 58.6 °F /  14.8 °C 53.1 °F /  11.7 °C 30.33 in /  1027 hPa NE 0.3 mph /  0.5 km/h 1.2 mph /  1.9 km/h 82 % 0.00 in /  0 mm
08:21 58.9 °F /  14.9 °C 53.1 °F /  11.7 °C 30.34 in /  1027.3 hPa ENE 2.7 mph /  4.3 km/h 5.0 mph /  8 km/h 81 % 0.00 in /  0 mm
08:26 59.1 °F /  15.1 °C 53.3 °F /  11.8 °C 30.34 in /  1027.3 hPa NE 1.5 mph /  2.4 km/h 3.5 mph /  5.6 km/h 81 % 0.00 in /  0 mm
08:31 59.3 °F /  15.2 °C 53.1 °F /  11.7 °C 30.34 in /  1027.3 hPa NE 2.6 mph /  4.2 km/h 6.9 mph /  11.1 km/h 80 % 0.00 in /  0 mm
08:33 59.3 °F /  15.2 °C 53.1 °F /  11.7 °C 30.34 in /  1027.3 hPa NE 0.5 mph /  0.8 km/h 1.2 mph /  1.9 km/h 80 % 0.00 in /  0 mm
08:38 59.4 °F /  15.2 °C 53.2 °F /  11.8 °C 30.34 in /  1027.3 hPa NE 0.9 mph /  1.4 km/h 4.0 mph /  6.4 km/h 80 % 0.00 in /  0 mm
08:43 59.3 °F /  15.2 °C 52.8 °F /  11.6 °C 30.34 in /  1027.3 hPa NE 2.8 mph /  4.5 km/h 5.0 mph /  8 km/h 79 % 0.00 in /  0 mm
08:48 59.2 °F /  15.1 °C 52.7 °F /  11.5 °C 30.34 in /  1027.3 hPa NE 4.0 mph /  6.4 km/h 6.9 mph /  11.1 km/h 79 % 0.00 in /  0 mm
08:53 59.1 °F /  15.1 °C 52.2 °F /  11.2 °C 30.34 in /  1027.3 hPa ENE 3.1 mph /  5 km/h 3.5 mph /  5.6 km/h 78 % 0.00 in /  0 mm
08:58 59.0 °F /  15 °C 51.1 °F /  10.6 °C 30.35 in /  1027.7 hPa ENE 1.3 mph /  2.1 km/h 4.6 mph /  7.4 km/h 75 % 0.00 in /  0 mm
09:03 59.1 °F /  15.1 °C 51.2 °F /  10.7 °C 30.35 in /  1027.7 hPa ENE 3.0 mph /  4.8 km/h 4.6 mph /  7.4 km/h 75 % 0.00 in /  0 mm
09:08 59.1 °F /  15.1 °C 51.5 °F /  10.8 °C 30.35 in /  1027.7 hPa North 2.0 mph /  3.2 km/h 3.5 mph /  5.6 km/h 76 % 0.00 in /  0 mm
09:14 59.4 °F /  15.2 °C 51.5 °F /  10.8 °C 30.35 in /  1027.7 hPa ENE 2.4 mph /  3.9 km/h 3.5 mph /  5.6 km/h 75 % 0.00 in /  0 mm
09:19 59.6 °F /  15.3 °C 50.2 °F /  10.1 °C 30.35 in /  1027.7 hPa ENE 2.1 mph /  3.4 km/h 4.6 mph /  7.4 km/h 71 % 0.00 in /  0 mm
09:24 59.7 °F /  15.4 °C 50.7 °F /  10.4 °C 30.35 in /  1027.7 hPa NE 2.2 mph /  3.5 km/h 3.5 mph /  5.6 km/h 72 % 0.00 in /  0 mm
09:29 59.9 °F /  15.5 °C 50.8 °F /  10.4 °C 30.35 in /  1027.7 hPa ENE 3.1 mph /  5 km/h 7.0 mph /  11.3 km/h 72 % 0.00 in /  0 mm
09:34 60.1 °F /  15.6 °C 51.4 °F /  10.8 °C 30.35 in /  1027.7 hPa NNE 2.5 mph /  4 km/h 4.6 mph /  7.4 km/h 73 % 0.00 in /  0 mm
09:39 60.7 °F /  15.9 °C 52.4 °F /  11.3 °C 30.35 in /  1027.7 hPa NE 2.3 mph /  3.7 km/h 5.8 mph /  9.3 km/h 74 % 0.00 in /  0 mm
09:44 61.3 °F /  16.3 °C 52.6 °F /  11.4 °C 30.35 in /  1027.7 hPa NE 3.8 mph /  6.1 km/h 4.6 mph /  7.4 km/h 73 % 0.00 in /  0 mm
09:49 61.6 °F /  16.4 °C 52.5 °F /  11.4 °C 30.36 in /  1028 hPa NE 2.8 mph /  4.5 km/h 4.6 mph /  7.4 km/h 72 % 0.00 in /  0 mm
09:54 62.0 °F /  16.7 °C 52.1 °F /  11.2 °C 30.36 in /  1028 hPa NE 1.7 mph /  2.7 km/h 3.5 mph /  5.6 km/h 70 % 0.00 in /  0 mm
09:59 62.6 °F /  17 °C 53.1 °F /  11.7 °C 30.36 in /  1028 hPa NE 1.5 mph /  2.4 km/h 4.6 mph /  7.4 km/h 71 % 0.00 in /  0 mm
10:04 63.3 °F /  17.4 °C 53.7 °F /  12.1 °C 30.36 in /  1028 hPa ENE 3.0 mph /  4.8 km/h 5.8 mph /  9.3 km/h 71 % 0.00 in /  0 mm
10:09 63.8 °F /  17.7 °C 53.0 °F /  11.7 °C 30.35 in /  1027.7 hPa ENE 4.0 mph /  6.4 km/h 7.0 mph /  11.3 km/h 68 % 0.00 in /  0 mm
10:14 63.6 °F /  17.6 °C 54.0 °F /  12.2 °C 30.35 in /  1027.7 hPa ENE 3.1 mph /  5 km/h 5.0 mph /  8 km/h 71 % 0.00 in /  0 mm
10:19 63.7 °F /  17.6 °C 53.7 °F /  12.1 °C 30.35 in /  1027.7 hPa NE 3.5 mph /  5.6 km/h 5.8 mph /  9.3 km/h 70 % 0.00 in /  0 mm
10:24 64.1 °F /  17.8 °C 54.1 °F /  12.3 °C 30.35 in /  1027.7 hPa ENE 3.4 mph /  5.5 km/h 8.1 mph /  13 km/h 70 % 0.00 in /  0 mm
10:29 64.7 °F /  18.2 °C 54.7 °F /  12.6 °C 30.35 in /  1027.7 hPa ENE 3.8 mph /  6.1 km/h 8.1 mph /  13 km/h 70 % 0.00 in /  0 mm
10:35 65.3 °F /  18.5 °C 54.1 °F /  12.3 °C 30.35 in /  1027.7 hPa ENE 4.0 mph /  6.4 km/h 7.0 mph /  11.3 km/h 67 % 0.00 in /  0 mm
10:40 65.2 °F /  18.4 °C 53.6 °F /  12 °C 30.35 in /  1027.7 hPa ENE 4.1 mph /  6.6 km/h 6.9 mph /  11.1 km/h 66 % 0.00 in /  0 mm
10:45 65.3 °F /  18.5 °C 54.1 °F /  12.3 °C 30.35 in /  1027.7 hPa ENE 3.6 mph /  5.8 km/h 8.1 mph /  13 km/h 67 % 0.00 in /  0 mm
10:50 65.2 °F /  18.4 °C 53.6 °F /  12 °C 30.35 in /  1027.7 hPa ENE 2.4 mph /  3.9 km/h 6.9 mph /  11.1 km/h 66 % 0.00 in /  0 mm
10:55 65.3 °F /  18.5 °C 54.1 °F /  12.3 °C 30.35 in /  1027.7 hPa ENE 4.8 mph /  7.7 km/h 8.1 mph /  13 km/h 67 % 0.00 in /  0 mm
11:00 65.8 °F /  18.8 °C 56.1 °F /  13.4 °C 30.35 in /  1027.7 hPa ENE 1.8 mph /  2.9 km/h 3.5 mph /  5.6 km/h 71 % 0.00 in /  0 mm
11:05 66.1 °F /  18.9 °C 54.0 °F /  12.2 °C 30.35 in /  1027.7 hPa ENE 2.4 mph /  3.9 km/h 6.9 mph /  11.1 km/h 65 % 0.00 in /  0 mm
11:10 66.3 °F /  19.1 °C 54.2 °F /  12.3 °C 30.35 in /  1027.7 hPa ENE 2.5 mph /  4 km/h 5.8 mph /  9.3 km/h 65 % 0.00 in /  0 mm
11:11 66.3 °F /  19.1 °C 54.2 °F /  12.3 °C 30.35 in /  1027.7 hPa ENE 2.2 mph /  3.5 km/h 5.8 mph /  9.3 km/h 65 % 0.00 in /  0 mm
11:16 66.8 °F /  19.3 °C 55.5 °F /  13.1 °C 30.36 in /  1028 hPa ENE 4.8 mph /  7.7 km/h 10.4 mph /  16.7 km/h 67 % 0.00 in /  0 mm
11:21 66.5 °F /  19.2 °C 53.9 °F /  12.2 °C 30.35 in /  1027.7 hPa ENE 5.9 mph /  9.5 km/h 11.5 mph /  18.5 km/h 64 % 0.00 in /  0 mm
11:26 65.8 °F /  18.8 °C 54.5 °F /  12.5 °C 30.35 in /  1027.7 hPa NE 3.2 mph /  5.1 km/h 8.1 mph /  13 km/h 67 % 0.00 in /  0 mm
11:31 66.0 °F /  18.9 °C 54.3 °F /  12.4 °C 30.35 in /  1027.7 hPa ESE 4.0 mph /  6.4 km/h 5.8 mph /  9.3 km/h 66 % 0.00 in /  0 mm
11:36 66.3 °F /  19.1 °C 54.2 °F /  12.3 °C 30.35 in /  1027.7 hPa ENE 3.4 mph /  5.5 km/h 6.9 mph /  11.1 km/h 65 % 0.00 in /  0 mm
11:41 66.8 °F /  19.3 °C 55.9 °F /  13.3 °C 30.35 in /  1027.7 hPa ENE 3.1 mph /  5 km/h 5.8 mph /  9.3 km/h 68 % 0.00 in /  0 mm
11:46 66.7 °F /  19.3 °C 54.1 °F /  12.3 °C 30.35 in /  1027.7 hPa NE 5.0 mph /  8 km/h 10.4 mph /  16.7 km/h 64 % 0.00 in /  0 mm
11:51 66.6 °F /  19.2 °C 55.3 °F /  12.9 °C 30.35 in /  1027.7 hPa NE 2.8 mph /  4.5 km/h 4.6 mph /  7.4 km/h 67 % 0.00 in /  0 mm
11:56 66.4 °F /  19.1 °C 55.5 °F /  13.1 °C 30.34 in /  1027.3 hPa ENE 4.8 mph /  7.7 km/h 6.9 mph /  11.1 km/h 68 % 0.00 in /  0 mm
12:01 66.7 °F /  19.3 °C 54.1 °F /  12.3 °C 30.33 in /  1027 hPa ENE 2.9 mph /  4.7 km/h 5.0 mph /  8 km/h 64 % 0.00 in /  0 mm
12:07 66.6 °F /  19.2 °C 55.3 °F /  12.9 °C 30.33 in /  1027 hPa ENE 3.8 mph /  6.1 km/h 9.2 mph /  14.8 km/h 67 % 0.00 in /  0 mm
12:12 66.5 °F /  19.2 °C 55.2 °F /  12.9 °C 30.33 in /  1027 hPa ENE 2.8 mph /  4.5 km/h 4.6 mph /  7.4 km/h 67 % 0.00 in /  0 mm
12:17 66.5 °F /  19.2 °C 53.9 °F /  12.2 °C 30.33 in /  1027 hPa NE 3.5 mph /  5.6 km/h 6.9 mph /  11.1 km/h 64 % 0.00 in /  0 mm
12:22 66.8 °F /  19.3 °C 55.9 °F /  13.3 °C 30.33 in /  1027 hPa North 0.9 mph /  1.4 km/h 4.6 mph /  7.4 km/h 68 % 0.00 in /  0 mm
12:27 67.3 °F /  19.6 °C 56.8 °F /  13.8 °C 30.33 in /  1027 hPa ENE 1.9 mph /  3.1 km/h 4.6 mph /  7.4 km/h 69 % 0.00 in /  0 mm
12:32 67.4 °F /  19.7 °C 55.6 °F /  13.1 °C 30.33 in /  1027 hPa North 5.3 mph /  8.5 km/h 8.0 mph /  12.9 km/h 66 % 0.00 in /  0 mm
12:37 67.5 °F /  19.7 °C 55.7 °F /  13.2 °C 30.33 in /  1027 hPa NNE 2.6 mph /  4.2 km/h 4.6 mph /  7.4 km/h 66 % 0.00 in /  0 mm
12:42 67.7 °F /  19.8 °C 55.9 °F /  13.3 °C 30.33 in /  1027 hPa NNE 3.3 mph /  5.3 km/h 8.1 mph /  13 km/h 66 % 0.00 in /  0 mm
12:47 67.8 °F /  19.9 °C 56.0 °F /  13.3 °C 30.32 in /  1026.6 hPa SE 2.6 mph /  4.2 km/h 5.8 mph /  9.3 km/h 66 % 0.00 in /  0 mm
12:52 68.3 °F /  20.2 °C 57.3 °F /  14.1 °C 30.32 in /  1026.6 hPa ENE 3.1 mph /  5 km/h 8.1 mph /  13 km/h 68 % 0.00 in /  0 mm
12:57 68.3 °F /  20.2 °C 54.8 °F /  12.7 °C 30.31 in /  1026.3 hPa ENE 4.7 mph /  7.6 km/h 8.1 mph /  13 km/h 62 % 0.00 in /  0 mm
13:02 67.6 °F /  19.8 °C 55.0 °F /  12.8 °C 30.31 in /  1026.3 hPa ENE 2.8 mph /  4.5 km/h 6.9 mph /  11.1 km/h 64 % 0.00 in /  0 mm
13:07 67.7 °F /  19.8 °C 55.5 °F /  13.1 °C 30.31 in /  1026.3 hPa NE 5.3 mph /  8.5 km/h 8.1 mph /  13 km/h 65 % 0.00 in /  0 mm
13:12 67.3 °F /  19.6 °C 56.0 °F /  13.3 °C 30.31 in /  1026.3 hPa ENE 3.8 mph /  6.1 km/h 6.9 mph /  11.1 km/h 67 % 0.00 in /  0 mm
13:17 67.6 °F /  19.8 °C 56.2 °F /  13.4 °C 30.31 in /  1026.3 hPa ENE 2.8 mph /  4.5 km/h 6.9 mph /  11.1 km/h 67 % 0.00 in /  0 mm
13:22 67.7 °F /  19.8 °C 53.3 °F /  11.8 °C 30.31 in /  1026.3 hPa ENE 3.5 mph /  5.6 km/h 8.1 mph /  13 km/h 60 % 0.00 in /  0 mm
13:27 67.5 °F /  19.7 °C 53.6 °F /  12 °C 30.31 in /  1026.3 hPa ENE 0.4 mph /  0.6 km/h 8.1 mph /  13 km/h 61 % 0.00 in /  0 mm
13:32 67.6 °F /  19.8 °C 55.0 °F /  12.8 °C 30.30 in /  1026 hPa ENE 2.7 mph /  4.3 km/h 5.0 mph /  8 km/h 64 % 0.00 in /  0 mm
13:37 67.6 °F /  19.8 °C 54.6 °F /  12.6 °C 30.30 in /  1026 hPa ENE 1.8 mph /  2.9 km/h 4.0 mph /  6.4 km/h 63 % 0.00 in /  0 mm
13:42 67.9 °F /  19.9 °C 54.0 °F /  12.2 °C 30.30 in /  1026 hPa NE 1.7 mph /  2.7 km/h 6.9 mph /  11.1 km/h 61 % 0.00 in /  0 mm
13:47 67.9 °F /  19.9 °C 51.6 °F /  10.9 °C 30.30 in /  1026 hPa NE 0.7 mph /  1.1 km/h 2.3 mph /  3.7 km/h 56 % 0.00 in /  0 mm
13:52 68.2 °F /  20.1 °C 54.2 °F /  12.3 °C 30.31 in /  1026.3 hPa ENE 0.3 mph /  0.5 km/h 3.5 mph /  5.6 km/h 61 % 0.00 in /  0 mm
13:57 68.6 °F /  20.3 °C 52.3 °F /  11.3 °C 30.30 in /  1026 hPa ENE 0.4 mph /  0.6 km/h 3.5 mph /  5.6 km/h 56 % 0.00 in /  0 mm
14:02 68.9 °F /  20.5 °C 53.5 °F /  11.9 °C 30.30 in /  1026 hPa ENE 1.2 mph /  1.9 km/h 2.3 mph /  3.7 km/h 58 % 0.00 in /  0 mm
14:07 69.4 °F /  20.8 °C 54.4 °F /  12.4 °C 30.30 in /  1026 hPa Calm   1.2 mph /  1.9 km/h 59 % 0.00 in /  0 mm
14:12 69.9 °F /  21.1 °C 45.1 °F /  7.3 °C 30.30 in /  1026 hPa SSE 2.0 mph /  3.2 km/h 5.0 mph /  8 km/h 41 % 0.00 in /  0 mm
14:17 70.6 °F /  21.4 °C 45.7 °F /  7.6 °C 30.30 in /  1026 hPa SE 2.3 mph /  3.7 km/h 7.0 mph /  11.3 km/h 41 % 0.00 in /  0 mm
14:22 70.3 °F /  21.3 °C 40.6 °F /  4.8 °C 30.30 in /  1026 hPa SE 0.4 mph /  0.6 km/h 2.3 mph /  3.7 km/h 34 % 0.00 in /  0 mm
14:27 70.2 °F /  21.2 °C 42.0 °F /  5.6 °C 30.30 in /  1026 hPa SE 3.2 mph /  5.1 km/h 11.0 mph /  17.7 km/h 36 % 0.00 in /  0 mm
14:32 70.1 °F /  21.2 °C 44.0 °F /  6.7 °C 30.30 in /  1026 hPa SE 0.1 mph /  0.2 km/h 3.5 mph /  5.6 km/h 39 % 0.00 in /  0 mm
14:37 70.4 °F /  21.3 °C 40.7 °F /  4.8 °C 30.30 in /  1026 hPa SE 2.2 mph /  3.5 km/h 5.8 mph /  9.3 km/h 34 % 0.00 in /  0 mm
14:42 70.1 °F /  21.2 °C 41.9 °F /  5.5 °C 30.29 in /  1025.6 hPa SSW 1.8 mph /  2.9 km/h 11.5 mph /  18.5 km/h 36 % 0.00 in /  0 mm
14:48 69.9 °F /  21.1 °C 43.8 °F /  6.6 °C 30.29 in /  1025.6 hPa WSW 0.5 mph /  0.8 km/h 3.5 mph /  5.6 km/h 39 % 0.00 in /  0 mm
14:53 70.1 °F /  21.2 °C 39.6 °F /  4.2 °C 30.29 in /  1025.6 hPa SE 4.7 mph /  7.6 km/h 6.0 mph /  9.7 km/h 33 % 0.00 in /  0 mm
14:58 70.4 °F /  21.3 °C 42.9 °F /  6.1 °C 30.29 in /  1025.6 hPa WSW 0.7 mph /  1.1 km/h 3.5 mph /  5.6 km/h 37 % 0.00 in /  0 mm
15:03 70.7 °F /  21.5 °C 40.9 °F /  4.9 °C 30.29 in /  1025.6 hPa ESE 3.5 mph /  5.6 km/h 6.9 mph /  11.1 km/h 34 % 0.00 in /  0 mm
15:08 70.9 °F /  21.6 °C 43.3 °F /  6.3 °C 30.29 in /  1025.6 hPa SE 0.8 mph /  1.3 km/h 7.0 mph /  11.3 km/h 37 % 0.00 in /  0 mm
15:13 70.6 °F /  21.4 °C 40.1 °F /  4.5 °C 30.29 in /  1025.6 hPa SSE 1.4 mph /  2.3 km/h 4.6 mph /  7.4 km/h 33 % 0.00 in /  0 mm
15:18 70.2 °F /  21.2 °C 39.7 °F /  4.3 °C 30.29 in /  1025.6 hPa SSE 1.0 mph /  1.6 km/h 4.6 mph /  7.4 km/h 33 % 0.00 in /  0 mm
15:23 69.9 °F /  21.1 °C 37.0 °F /  2.8 °C 30.28 in /  1025.3 hPa SSE 4.8 mph /  7.7 km/h 9.2 mph /  14.8 km/h 30 % 0.00 in /  0 mm
15:28 68.9 °F /  20.5 °C 38.6 °F /  3.7 °C 30.28 in /  1025.3 hPa SE 5.0 mph /  8 km/h 9.2 mph /  14.8 km/h 33 % 0.00 in /  0 mm
15:33 68.8 °F /  20.4 °C 39.3 °F /  4.1 °C 30.28 in /  1025.3 hPa SE 2.8 mph /  4.5 km/h 12.0 mph /  19.3 km/h 34 % 0.00 in /  0 mm
15:38 68.5 °F /  20.3 °C 37.5 °F /  3.1 °C 30.28 in /  1025.3 hPa SSE 8.8 mph /  14.2 km/h 12.0 mph /  19.3 km/h 32 % 0.00 in /  0 mm
15:43 68.4 °F /  20.2 °C 41.1 °F /  5.1 °C 30.28 in /  1025.3 hPa SSE 5.8 mph /  9.3 km/h 10.0 mph /  16.1 km/h 37 % 0.00 in /  0 mm
15:48 68.3 °F /  20.2 °C 41.0 °F /  5 °C 30.28 in /  1025.3 hPa SSE 1.2 mph /  1.9 km/h 4.0 mph /  6.4 km/h 37 % 0.00 in /  0 mm
15:53 68.5 °F /  20.3 °C 40.5 °F /  4.7 °C 30.27 in /  1024.9 hPa SSE 2.5 mph /  4 km/h 6.0 mph /  9.7 km/h 36 % 0.00 in /  0 mm
15:58 68.8 °F /  20.4 °C 40.7 °F /  4.8 °C 30.27 in /  1024.9 hPa ESE 3.4 mph /  5.5 km/h 6.9 mph /  11.1 km/h 36 % 0.00 in /  0 mm
16:03 68.8 °F /  20.4 °C 39.3 °F /  4.1 °C 30.28 in /  1025.3 hPa SE 4.7 mph /  7.6 km/h 8.1 mph /  13 km/h 34 % 0.00 in /  0 mm
16:08 68.9 °F /  20.5 °C 39.4 °F /  4.1 °C 30.28 in /  1025.3 hPa South 8.9 mph /  14.3 km/h 13.8 mph /  22.2 km/h 34 % 0.00 in /  0 mm
16:13 68.5 °F /  20.3 °C 39.0 °F /  3.9 °C 30.28 in /  1025.3 hPa SE 1.1 mph /  1.8 km/h 4.6 mph /  7.4 km/h 34 % 0.00 in /  0 mm
16:18 68.4 °F /  20.2 °C 38.2 °F /  3.4 °C 30.28 in /  1025.3 hPa SE 4.3 mph /  6.9 km/h 6.0 mph /  9.7 km/h 33 % 0.00 in /  0 mm
16:20 68.3 °F /  20.2 °C 38.8 °F /  3.8 °C 30.27 in /  1024.9 hPa South 1.6 mph /  2.6 km/h 5.8 mph /  9.3 km/h 34 % 0.00 in /  0 mm
16:25 68.0 °F /  20 °C 40.0 °F /  4.4 °C 30.27 in /  1024.9 hPa ESE 3.5 mph /  5.6 km/h 5.8 mph /  9.3 km/h 36 % 0.00 in /  0 mm
16:30 67.6 °F /  19.8 °C 37.5 °F /  3.1 °C 30.27 in /  1024.9 hPa SE 5.9 mph /  9.5 km/h 9.0 mph /  14.5 km/h 33 % 0.00 in /  0 mm
16:35 67.1 °F /  19.5 °C 39.9 °F /  4.4 °C 30.27 in /  1024.9 hPa SSE 3.7 mph /  6 km/h 6.9 mph /  11.1 km/h 37 % 0.00 in /  0 mm
16:40 66.9 °F /  19.4 °C 39.1 °F /  3.9 °C 30.27 in /  1024.9 hPa SE 1.2 mph /  1.9 km/h 8.1 mph /  13 km/h 36 % 0.00 in /  0 mm
16:45 66.7 °F /  19.3 °C 38.2 °F /  3.4 °C 30.26 in /  1024.6 hPa SE 6.2 mph /  10 km/h 10.4 mph /  16.7 km/h 35 % 0.00 in /  0 mm
16:50 66.3 °F /  19.1 °C 39.9 °F /  4.4 °C 30.26 in /  1024.6 hPa SSE 1.1 mph /  1.8 km/h 2.3 mph /  3.7 km/h 38 % 0.00 in /  0 mm
16:55 66.1 °F /  18.9 °C 39.1 °F /  3.9 °C 30.26 in /  1024.6 hPa SSW 1.3 mph /  2.1 km/h 3.5 mph /  5.6 km/h 37 % 0.00 in /  0 mm
17:00 66.1 °F /  18.9 °C 38.4 °F /  3.6 °C 30.26 in /  1024.6 hPa SSE 5.2 mph /  8.4 km/h 9.2 mph /  14.8 km/h 36 % 0.00 in /  0 mm
17:05 65.6 °F /  18.7 °C 38.6 °F /  3.7 °C 30.26 in /  1024.6 hPa SE 3.2 mph /  5.1 km/h 9.2 mph /  14.8 km/h 37 % 0.00 in /  0 mm
17:10 65.3 °F /  18.5 °C 38.3 °F /  3.5 °C 30.26 in /  1024.6 hPa SE 4.7 mph /  7.6 km/h 11.5 mph /  18.5 km/h 37 % 0.00 in /  0 mm
17:15 64.9 °F /  18.3 °C 38.0 °F /  3.3 °C 30.26 in /  1024.6 hPa SSE 2.4 mph /  3.9 km/h 11.5 mph /  18.5 km/h 37 % 0.00 in /  0 mm
17:20 64.7 °F /  18.2 °C 39.2 °F /  4 °C 30.26 in /  1024.6 hPa SSE 1.7 mph /  2.7 km/h 6.0 mph /  9.7 km/h 39 % 0.00 in /  0 mm
17:25 64.6 °F /  18.1 °C 39.1 °F /  3.9 °C 30.26 in /  1024.6 hPa SSW 1.9 mph /  3.1 km/h 3.5 mph /  5.6 km/h 39 % 0.00 in /  0 mm
17:30 64.3 °F /  17.9 °C 38.1 °F /  3.4 °C 30.26 in /  1024.6 hPa SSW 3.3 mph /  5.3 km/h 4.6 mph /  7.4 km/h 38 % 0.00 in /  0 mm
17:35 64.2 °F /  17.9 °C 37.4 °F /  3 °C 30.26 in /  1024.6 hPa ESE 7.0 mph /  11.3 km/h 9.2 mph /  14.8 km/h 37 % 0.00 in /  0 mm
17:40 63.9 °F /  17.7 °C 39.1 °F /  3.9 °C 30.25 in /  1024.3 hPa SSE 3.5 mph /  5.6 km/h 8.1 mph /  13 km/h 40 % 0.00 in /  0 mm
17:45 63.6 °F /  17.6 °C 39.5 °F /  4.2 °C 30.25 in /  1024.3 hPa SSW 1.7 mph /  2.7 km/h 4.0 mph /  6.4 km/h 41 % 0.00 in /  0 mm
17:50 63.5 °F /  17.5 °C 38.7 °F /  3.7 °C 30.25 in /  1024.3 hPa SE 2.4 mph /  3.9 km/h 4.6 mph /  7.4 km/h 40 % 0.00 in /  0 mm
17:55 63.4 °F /  17.4 °C 39.9 °F /  4.4 °C 30.25 in /  1024.3 hPa West 1.9 mph /  3.1 km/h 3.5 mph /  5.6 km/h 42 % 0.00 in /  0 mm
18:00 63.3 °F /  17.4 °C 38.6 °F /  3.7 °C 30.25 in /  1024.3 hPa South 1.1 mph /  1.8 km/h 3.5 mph /  5.6 km/h 40 % 0.00 in /  0 mm
18:05 63.0 °F /  17.2 °C 38.3 °F /  3.5 °C 30.25 in /  1024.3 hPa SE 3.7 mph /  6 km/h 6.9 mph /  11.1 km/h 40 % 0.00 in /  0 mm
18:10 62.9 °F /  17.2 °C 38.2 °F /  3.4 °C 30.25 in /  1024.3 hPa SSE 1.0 mph /  1.6 km/h 6.0 mph /  9.7 km/h 40 % 0.00 in /  0 mm
18:15 62.8 °F /  17.1 °C 38.7 °F /  3.7 °C 30.25 in /  1024.3 hPa Calm   7.0 mph /  11.3 km/h 41 % 0.00 in /  0 mm
18:20 62.6 °F /  17 °C 39.2 °F /  4 °C 30.25 in /  1024.3 hPa SE 6.0 mph /  9.7 km/h 12.0 mph /  19.3 km/h 42 % 0.00 in /  0 mm
18:25 62.4 °F /  16.9 °C 38.4 °F /  3.6 °C 30.25 in /  1024.3 hPa SE 5.0 mph /  8 km/h 12.0 mph /  19.3 km/h 41 % 0.00 in /  0 mm
18:30 62.1 °F /  16.7 °C 38.7 °F /  3.7 °C 30.26 in /  1024.6 hPa SSE 2.0 mph /  3.2 km/h 10.0 mph /  16.1 km/h 42 % 0.00 in /  0 mm
18:35 62.0 °F /  16.7 °C 38.6 °F /  3.7 °C 30.26 in /  1024.6 hPa SSE 7.7 mph /  12.4 km/h 8.1 mph /  13 km/h 42 % 0.00 in /  0 mm
18:40 61.8 °F /  16.6 °C 39.6 °F /  4.2 °C 30.26 in /  1024.6 hPa Calm   3.5 mph /  5.6 km/h 44 % 0.00 in /  0 mm
18:45 61.8 °F /  16.6 °C 39.1 °F /  3.9 °C 30.27 in /  1024.9 hPa SSW 0.6 mph /  1 km/h 3.5 mph /  5.6 km/h 43 % 0.00 in /  0 mm
18:50 61.7 °F /  16.5 °C 39.0 °F /  3.9 °C 30.27 in /  1024.9 hPa SW 2.5 mph /  4 km/h 3.5 mph /  5.6 km/h 43 % 0.00 in /  0 mm
18:55 61.6 °F /  16.4 °C 38.9 °F /  3.8 °C 30.26 in /  1024.6 hPa SW 0.8 mph /  1.3 km/h 3.5 mph /  5.6 km/h 43 % 0.00 in /  0 mm
19:00 61.3 °F /  16.3 °C 39.2 °F /  4 °C 30.26 in /  1024.6 hPa Calm   2.3 mph /  3.7 km/h 44 % 0.00 in /  0 mm
19:05 61.1 °F /  16.2 °C 38.4 °F /  3.6 °C 30.26 in /  1024.6 hPa SSE 3.4 mph /  5.5 km/h 8.1 mph /  13 km/h 43 % 0.00 in /  0 mm
19:10 60.9 °F /  16.1 °C 38.2 °F /  3.4 °C 30.26 in /  1024.6 hPa SE 3.2 mph /  5.1 km/h 5.0 mph /  8 km/h 43 % 0.00 in /  0 mm
19:16 60.6 °F /  15.9 °C 38.6 °F /  3.7 °C 30.26 in /  1024.6 hPa SE 0.2 mph /  0.3 km/h 3.5 mph /  5.6 km/h 44 % 0.00 in /  0 mm
19:21 60.3 °F /  15.7 °C 38.3 °F /  3.5 °C 30.27 in /  1024.9 hPa SSE 1.0 mph /  1.6 km/h 6.0 mph /  9.7 km/h 44 % 0.00 in /  0 mm
19:26 60.0 °F /  15.6 °C 38.0 °F /  3.3 °C 30.27 in /  1024.9 hPa SE 2.0 mph /  3.2 km/h 8.0 mph /  12.9 km/h 44 % 0.00 in /  0 mm
19:31 59.8 °F /  15.4 °C 37.8 °F /  3.2 °C 30.26 in /  1024.6 hPa Calm   5.0 mph /  8 km/h 44 % 0.00 in /  0 mm
19:36 59.5 °F /  15.3 °C 38.1 °F /  3.4 °C 30.26 in /  1024.6 hPa SE 0.2 mph /  0.3 km/h   45 % 0.00 in /  0 mm
19:41 59.4 °F /  15.2 °C 38.6 °F /  3.7 °C 30.26 in /  1024.6 hPa Calm   3.0 mph /  4.8 km/h 46 % 0.00 in /  0 mm
19:46 59.2 °F /  15.1 °C 38.4 °F /  3.6 °C 30.26 in /  1024.6 hPa SE 1.0 mph /  1.6 km/h 5.0 mph /  8 km/h 46 % 0.00 in /  0 mm
19:51 58.9 °F /  14.9 °C 38.2 °F /  3.4 °C 30.25 in /  1024.3 hPa SE 3.0 mph /  4.8 km/h 6.0 mph /  9.7 km/h 46 % 0.00 in /  0 mm
19:56 58.7 °F /  14.8 °C 38.5 °F /  3.6 °C 30.25 in /  1024.3 hPa SE 2.0 mph /  3.2 km/h 6.0 mph /  9.7 km/h 47 % 0.00 in /  0 mm
20:01 58.5 °F /  14.7 °C 38.9 °F /  3.8 °C 30.25 in /  1024.3 hPa SE 1.1 mph /  1.8 km/h 3.5 mph /  5.6 km/h 48 % 0.00 in /  0 mm
20:06 58.3 °F /  14.6 °C 39.2 °F /  4 °C 30.26 in /  1024.6 hPa SE 0.5 mph /  0.8 km/h 2.3 mph /  3.7 km/h 49 % 0.00 in /  0 mm
20:11 58.2 °F /  14.6 °C 39.6 °F /  4.2 °C 30.26 in /  1024.6 hPa Calm     50 % 0.00 in /  0 mm
20:16 58.1 °F /  14.5 °C 39.5 °F /  4.2 °C 30.26 in /  1024.6 hPa WSW 0.4 mph /  0.6 km/h 3.0 mph /  4.8 km/h 50 % 0.00 in /  0 mm
20:21 57.9 °F /  14.4 °C 39.9 °F /  4.4 °C 30.25 in /  1024.3 hPa SSW 1.6 mph /  2.6 km/h 3.5 mph /  5.6 km/h 51 % 0.00 in /  0 mm
20:26 57.7 °F /  14.3 °C 40.2 °F /  4.6 °C 30.25 in /  1024.3 hPa Calm   1.2 mph /  1.9 km/h 52 % 0.00 in /  0 mm
20:31 57.5 °F /  14.2 °C 40.0 °F /  4.4 °C 30.26 in /  1024.6 hPa Calm   2.3 mph /  3.7 km/h 52 % 0.00 in /  0 mm
20:36 57.4 °F /  14.1 °C 40.4 °F /  4.7 °C 30.26 in /  1024.6 hPa SE 0.2 mph /  0.3 km/h 1.2 mph /  1.9 km/h 53 % 0.00 in /  0 mm
20:41 57.2 °F /  14 °C 40.2 °F /  4.6 °C 30.26 in /  1024.6 hPa Calm     53 % 0.00 in /  0 mm
20:46 57.1 °F /  13.9 °C 40.6 °F /  4.8 °C 30.26 in /  1024.6 hPa SE 0.2 mph /  0.3 km/h 1.2 mph /  1.9 km/h 54 % 0.00 in /  0 mm
20:51 57.0 °F /  13.9 °C 41.0 °F /  5 °C 30.25 in /  1024.3 hPa SE 0.3 mph /  0.5 km/h 2.0 mph /  3.2 km/h 55 % 0.00 in /  0 mm
20:56 56.9 °F /  13.8 °C 40.9 °F /  4.9 °C 30.25 in /  1024.3 hPa Calm     55 % 0.00 in /  0 mm
21:01 56.8 °F /  13.8 °C 40.8 °F /  4.9 °C 30.25 in /  1024.3 hPa SE 0.8 mph /  1.3 km/h 2.3 mph /  3.7 km/h 55 % 0.00 in /  0 mm
21:06 56.7 °F /  13.7 °C 41.2 °F /  5.1 °C 30.25 in /  1024.3 hPa SE 0.1 mph /  0.2 km/h 2.3 mph /  3.7 km/h 56 % 0.00 in /  0 mm
21:11 56.6 °F /  13.7 °C 41.1 °F /  5.1 °C 30.25 in /  1024.3 hPa SE 1.0 mph /  1.6 km/h 3.0 mph /  4.8 km/h 56 % 0.00 in /  0 mm
21:16 56.6 °F /  13.7 °C 42.0 °F /  5.6 °C 30.25 in /  1024.3 hPa Calm   1.2 mph /  1.9 km/h 58 % 0.00 in /  0 mm
21:21 56.5 °F /  13.6 °C 42.3 °F /  5.7 °C 30.25 in /  1024.3 hPa Calm     59 % 0.00 in /  0 mm
21:26 56.4 °F /  13.6 °C 41.3 °F /  5.2 °C 30.25 in /  1024.3 hPa SE 0.2 mph /  0.3 km/h 1.2 mph /  1.9 km/h 57 % 0.00 in /  0 mm
21:31 56.4 °F /  13.6 °C 41.3 °F /  5.2 °C 30.25 in /  1024.3 hPa Calm     57 % 0.00 in /  0 mm
21:36 56.3 °F /  13.5 °C 41.7 °F /  5.4 °C 30.25 in /  1024.3 hPa Calm   1.2 mph /  1.9 km/h 58 % 0.00 in /  0 mm
21:41 56.3 °F /  13.5 °C 41.7 °F /  5.4 °C 30.25 in /  1024.3 hPa SE 0.2 mph /  0.3 km/h 1.2 mph /  1.9 km/h 58 % 0.00 in /  0 mm
21:46 56.2 °F /  13.4 °C 41.6 °F /  5.3 °C 30.25 in /  1024.3 hPa SE 1.3 mph /  2.1 km/h 1.3 mph /  2.1 km/h 58 % 0.00 in /  0 mm
21:51 56.2 °F /  13.4 °C 41.2 °F /  5.1 °C 30.25 in /  1024.3 hPa SE 2.9 mph /  4.7 km/h 4.6 mph /  7.4 km/h 57 % 0.00 in /  0 mm
21:56 56.2 °F /  13.4 °C 41.6 °F /  5.3 °C 30.24 in /  1023.9 hPa SE 1.3 mph /  2.1 km/h 4.6 mph /  7.4 km/h 58 % 0.00 in /  0 mm
22:02 56.2 °F /  13.4 °C 42.1 °F /  5.6 °C 30.24 in /  1023.9 hPa ESE 1.2 mph /  1.9 km/h 3.0 mph /  4.8 km/h 59 % 0.00 in /  0 mm
22:07 56.1 °F /  13.4 °C 41.5 °F /  5.3 °C 30.24 in /  1023.9 hPa SE 1.3 mph /  2.1 km/h 3.5 mph /  5.6 km/h 58 % 0.00 in /  0 mm
22:12 56.1 °F /  13.4 °C 42.0 °F /  5.6 °C 30.24 in /  1023.9 hPa SE 2.6 mph /  4.2 km/h 3.5 mph /  5.6 km/h 59 % 0.00 in /  0 mm
22:17 56.1 °F /  13.4 °C 41.5 °F /  5.3 °C 30.24 in /  1023.9 hPa SE 3.5 mph /  5.6 km/h 4.6 mph /  7.4 km/h 58 % 0.00 in /  0 mm
22:23 56.0 °F /  13.3 °C 41.9 °F /  5.5 °C 30.24 in /  1023.9 hPa Calm   1.0 mph /  1.6 km/h 59 % 0.00 in /  0 mm
22:28 56.1 °F /  13.4 °C 42.0 °F /  5.6 °C 30.24 in /  1023.9 hPa SSE 0.2 mph /  0.3 km/h 2.0 mph /  3.2 km/h 59 % 0.00 in /  0 mm
22:33 56.0 °F /  13.3 °C 41.9 °F /  5.5 °C 30.24 in /  1023.9 hPa Calm   2.3 mph /  3.7 km/h 59 % 0.00 in /  0 mm
22:38 56.0 °F /  13.3 °C 41.9 °F /  5.5 °C 30.24 in /  1023.9 hPa Calm   1.2 mph /  1.9 km/h 59 % 0.00 in /  0 mm
22:43 56.0 °F /  13.3 °C 41.9 °F /  5.5 °C 30.24 in /  1023.9 hPa SSE 0.2 mph /  0.3 km/h 1.2 mph /  1.9 km/h 59 % 0.00 in /  0 mm
22:48 56.1 °F /  13.4 °C 42.4 °F /  5.8 °C 30.24 in /  1023.9 hPa Calm     60 % 0.00 in /  0 mm
22:53 56.1 °F /  13.4 °C 42.4 °F /  5.8 °C 30.24 in /  1023.9 hPa Calm     60 % 0.00 in /  0 mm
22:58 56.2 °F /  13.4 °C 42.1 °F /  5.6 °C 30.24 in /  1023.9 hPa SSE 0.5 mph /  0.8 km/h 2.3 mph /  3.7 km/h 59 % 0.00 in /  0 mm
23:03 56.2 °F /  13.4 °C 42.1 °F /  5.6 °C 30.23 in /  1023.6 hPa SSE 0.6 mph /  1 km/h 2.3 mph /  3.7 km/h 59 % 0.00 in /  0 mm
23:08 56.2 °F /  13.4 °C 42.1 °F /  5.6 °C 30.23 in /  1023.6 hPa ESE 0.8 mph /  1.3 km/h 2.3 mph /  3.7 km/h 59 % 0.00 in /  0 mm
23:13 56.3 °F /  13.5 °C 42.1 °F /  5.6 °C 30.23 in /  1023.6 hPa SSE 1.4 mph /  2.3 km/h 3.5 mph /  5.6 km/h 59 % 0.00 in /  0 mm
23:18 56.3 °F /  13.5 °C 42.1 °F /  5.6 °C 30.23 in /  1023.6 hPa SSE 0.4 mph /  0.6 km/h 2.3 mph /  3.7 km/h 59 % 0.00 in /  0 mm
23:23 56.4 °F /  13.6 °C 42.7 °F /  5.9 °C 30.23 in /  1023.6 hPa SSE 0.2 mph /  0.3 km/h 2.0 mph /  3.2 km/h 60 % 0.00 in /  0 mm
23:28 56.4 °F /  13.6 °C 42.2 °F /  5.7 °C 30.23 in /  1023.6 hPa SSE 1.2 mph /  1.9 km/h 3.5 mph /  5.6 km/h 59 % 0.00 in /  0 mm
23:33 56.4 °F /  13.6 °C 42.2 °F /  5.7 °C 30.23 in /  1023.6 hPa Calm   1.2 mph /  1.9 km/h 59 % 0.00 in /  0 mm
23:38 56.5 °F /  13.6 °C 42.8 °F /  6 °C 30.23 in /  1023.6 hPa SSE 0.2 mph /  0.3 km/h 1.0 mph /  1.6 km/h 60 % 0.00 in /  0 mm
23:43 56.4 °F /  13.6 °C 42.7 °F /  5.9 °C 30.23 in /  1023.6 hPa WSW 0.6 mph /  1 km/h 2.3 mph /  3.7 km/h 60 % 0.00 in /  0 mm
23:48 56.4 °F /  13.6 °C 42.2 °F /  5.7 °C 30.23 in /  1023.6 hPa SSE 0.1 mph /  0.2 km/h 1.2 mph /  1.9 km/h 59 % 0.00 in /  0 mm
23:53 56.4 °F /  13.6 °C 42.7 °F /  5.9 °C 30.23 in /  1023.6 hPa Calm   2.3 mph /  3.7 km/h 60 % 0.00 in /  0 mm
23:58 56.5 °F /  13.6 °C 42.8 °F /  6 °C 30.23 in /  1023.6 hPa Calm   1.2 mph /  1.9 km/h 60 % 0.00 in /  0 mm
Crab Meadow Weather
Compliments of Weather Underground - 3 mb

Script developed by  Jim McMurry - jmcmurry@mwt.net Adapted for the template by  Wim van der Kuil - Leuven-Template.eu

Pollen: Each year American vegetation spews forth some 1,000,000 tons of pollen into the air we breathe.